Redmond, OR

4:25 PM PST on January 18, 2018 (GMT -0800)
Roberts Field Airport

Weather History for KRDM - September, 2013

Change the Weather History Date:

Thursday, September 26, 2013

  Actual Average Record
Temperature  
Mean Temperature 44 °F 54 °F  
Max Temperature 58 °F 73 °F 95 °F (1963)
Min Temperature 30 °F 35 °F 24 °F (2000)
Degree Days  
Heating Degree Days 21 11  
Month to date heating degree days 167 203  
Since 1 July heating degree days 203 352  
Cooling Degree Days 0 0  
Month to date cooling degree days 36 14  
Year to date cooling degree days 350 220  
Moisture  
Dew Point 34 °F    
Average Humidity 68    
Maximum Humidity 92    
Minimum Humidity 43    
Precipitation  
Precipitation T in 0.01 in 0.64 in (1981)
Month to date precipitation 0.46 0.35  
Year to date precipitation 3.54 6.08  
Sea Level Pressure  
Sea Level Pressure 30.07 in    
Wind  
Wind Speed 5 mph (NNW)    
Max Wind Speed 18 mph    
Max Gust Speed 23 mph    
Visibility 10 miles    
Events Rain    
T = Trace of Precipitation, MM = Missing Value Source: NWS Daily Summary

Daily Weather History Graph

Daily Weather History Graph

Search for Another Location

Airport or City:

Trip Planner

Search our weather history database for the weather conditions in past years. The results will help you decide how hot, cold, wet, or windy it might be!

Date:

Astronomy

Sep. 26, 2013 Rise Set
Actual Time 6:56 AM PDT 6:53 PM PDT
Civil Twilight 6:27 AM PDT 7:22 PM PDT
Nautical Twilight 5:54 AM PDT 7:56 PM PDT
Astronomical Twilight 5:19 AM PDT 8:30 PM PDT
Moon 11:46 PM PDT (9/26) 2:03 PM PDT (9/26)
Length of Visible Light 12h 54m
Length of Day
11h 57m
Waning Gibbous, 53% of the Moon is Illuminated
Sep 26
Waning Gibbous
Sep 26
Last Quarter
Oct 4
New
Oct 11
First Quarter
Oct 18
Full

Hourly Weather History & Observations

Time (PDT) Temp. Windchill Dew Point Humidity Pressure Visibility Wind Dir Wind Speed Gust Speed Precip Events Conditions
12:56 AM 35.1 °F - 32.0 °F 89% 30.00 in 10.0 mi Calm Calm - N/A   Clear
1:56 AM 34.0 °F - 30.9 °F 89% 30.00 in 10.0 mi Calm Calm - N/A   Partly Cloudy
2:56 AM 32.0 °F - 30.0 °F 92% 30.01 in 10.0 mi Calm Calm - N/A   Clear
3:56 AM 32.0 °F 28.7 °F 30.0 °F 92% 30.01 in 10.0 mi SSE 3.5 mph - N/A   Clear
4:56 AM 30.9 °F 25.2 °F 28.9 °F 92% 30.02 in 10.0 mi South 5.8 mph - N/A   Clear
5:56 AM 30.0 °F 25.2 °F 28.0 °F 92% 30.03 in 10.0 mi SSE 4.6 mph - N/A   Clear
6:56 AM 30.0 °F 26.5 °F 28.9 °F 96% 30.05 in 10.0 mi SSE 3.5 mph - N/A   Mostly Cloudy
7:56 AM 32.0 °F 28.7 °F 30.0 °F 92% 30.06 in 10.0 mi South 3.5 mph - N/A   Overcast
8:56 AM 37.0 °F 34.5 °F 33.1 °F 86% 30.06 in 10.0 mi SE 3.5 mph - N/A   Overcast
9:56 AM 44.1 °F - 36.0 °F 73% 30.06 in 10.0 mi Calm Calm - N/A   Mostly Cloudy
10:56 AM 48.9 °F - 36.0 °F 61% 30.06 in 10.0 mi North 6.9 mph - N/A   Partly Cloudy
11:56 AM 50.0 °F - 37.0 °F 61% 30.06 in 10.0 mi North 3.5 mph - N/A   Mostly Cloudy
12:56 PM 54.0 °F - 37.0 °F 53% 30.05 in 10.0 mi North 8.1 mph - N/A   Partly Cloudy
1:56 PM 55.9 °F - 36.0 °F 47% 30.05 in 10.0 mi Variable 4.6 mph 16.1 mph N/A   Mostly Cloudy
2:56 PM 55.0 °F - 33.1 °F 43% 30.05 in 10.0 mi NNW 8.1 mph - N/A   Partly Cloudy
3:56 PM 51.1 °F - 37.0 °F 59% 30.08 in 10.0 mi NNE 8.1 mph - 0.00 in Rain Light Rain
4:56 PM 53.1 °F - 35.1 °F 50% 30.09 in 10.0 mi NNE 9.2 mph - 0.00 in   Overcast
5:56 PM 54.0 °F - 35.1 °F 49% 30.09 in 10.0 mi North 6.9 mph - N/A   Scattered Clouds
6:56 PM 48.9 °F - 36.0 °F 61% 30.12 in 10.0 mi North 3.5 mph - N/A   Partly Cloudy
7:56 PM 48.0 °F - 37.0 °F 66% 30.14 in 10.0 mi WNW 3.5 mph - N/A   Overcast
8:56 PM 46.9 °F - 36.0 °F 66% 30.16 in 10.0 mi Calm Calm - N/A   Mostly Cloudy
9:56 PM 43.0 °F 40.3 °F 35.1 °F 74% 30.16 in 10.0 mi West 4.6 mph - N/A   Clear
10:56 PM 43.0 °F 38.8 °F 35.1 °F 74% 30.16 in 10.0 mi WNW 6.9 mph - N/A   Scattered Clouds
11:56 PM 37.9 °F 34.4 °F 34.0 °F 86% 30.17 in 10.0 mi WSW 4.6 mph - N/A   Clear